TimeCDT,TemperatureF,Dew PointF,Humidity,Sea Level PressureIn,VisibilityMPH,Wind Direction,Wind SpeedMPH,Gust SpeedMPH,PrecipitationIn,Events,Conditions,WindDirDegrees,DateUTC
12:54 AM,73.0,60.1,64,29.73,10.0,North,10.4,-,N/A,,Partly Cloudy,360,2013-06-30 05:54:00
1:54 AM,73.0,60.1,64,29.73,10.0,NE,3.5,-,N/A,,Partly Cloudy,40,2013-06-30 06:54:00
2:54 AM,72.0,60.1,66,29.72,10.0,Calm,Calm,-,N/A,,Partly Cloudy,0,2013-06-30 07:54:00
3:54 AM,70.0,60.1,71,29.71,10.0,WNW,6.9,-,N/A,,Mostly Cloudy,300,2013-06-30 08:54:00
4:54 AM,70.0,60.1,71,29.73,10.0,NNW,5.8,-,N/A,,Scattered Clouds,330,2013-06-30 09:54:00
5:54 AM,69.1,61.0,75,29.75,10.0,NNW,6.9,-,N/A,,Partly Cloudy,330,2013-06-30 10:54:00
6:54 AM,70.0,62.1,76,29.76,10.0,North,9.2,-,N/A,,Partly Cloudy,350,2013-06-30 11:54:00
7:54 AM,72.0,63.0,73,29.77,10.0,NNW,9.2,-,N/A,,Partly Cloudy,330,2013-06-30 12:54:00
8:46 AM,71.6,62.6,73,29.79,10.0,NNW,6.9,-,N/A,,Mostly Cloudy,330,2013-06-30 13:46:00
8:54 AM,73.0,63.0,71,29.78,10.0,North,8.1,-,N/A,,Mostly Cloudy,360,2013-06-30 13:54:00
9:39 AM,73.4,62.6,69,29.80,10.0,NNW,9.2,-,N/A,,Overcast,340,2013-06-30 14:39:00
9:54 AM,73.0,62.1,68,29.79,10.0,NW,8.1,-,N/A,,Mostly Cloudy,320,2013-06-30 14:54:00
10:54 AM,75.9,62.1,62,29.80,10.0,North,9.2,-,N/A,,Mostly Cloudy,10,2013-06-30 15:54:00
11:14 AM,75.2,62.6,65,29.81,10.0,North,10.4,16.1,N/A,,Mostly Cloudy,360,2013-06-30 16:14:00
11:54 AM,78.1,63.0,60,29.80,10.0,NW,9.2,-,N/A,,Mostly Cloudy,310,2013-06-30 16:54:00
12:54 PM,78.1,62.1,58,29.79,10.0,North,11.5,-,N/A,,Mostly Cloudy,350,2013-06-30 17:54:00
1:54 PM,79.0,63.0,58,29.79,10.0,NNW,10.4,-,N/A,,Mostly Cloudy,340,2013-06-30 18:54:00
2:54 PM,79.0,63.0,58,29.78,10.0,NNW,6.9,16.1,N/A,,Mostly Cloudy,340,2013-06-30 19:54:00
3:54 PM,79.0,62.1,56,29.79,10.0,North,12.7,20.7,N/A,,Mostly Cloudy,10,2013-06-30 20:54:00
4:54 PM,79.0,60.1,52,29.79,10.0,NNE,13.8,19.6,N/A,,Mostly Cloudy,20,2013-06-30 21:54:00
5:54 PM,77.0,63.0,62,29.79,10.0,North,6.9,-,N/A,,Mostly Cloudy,350,2013-06-30 22:54:00
6:54 PM,77.0,62.1,60,29.80,10.0,NNW,8.1,-,N/A,,Mostly Cloudy,340,2013-06-30 23:54:00
7:54 PM,73.0,62.1,68,29.81,10.0,North,6.9,-,N/A,,Mostly Cloudy,350,2013-07-01 00:54:00
8:54 PM,72.0,63.0,73,29.81,10.0,NW,5.8,-,N/A,,Mostly Cloudy,320,2013-07-01 01:54:00
9:54 PM,73.0,63.0,71,29.83,10.0,North,6.9,-,N/A,,Mostly Cloudy,350,2013-07-01 02:54:00
10:54 PM,72.0,63.0,73,29.83,10.0,North,5.8,-,N/A,,Mostly Cloudy,350,2013-07-01 03:54:00
11:54 PM,71.1,63.0,75,29.82,10.0,North,5.8,-,N/A,,Scattered Clouds,350,2013-07-01 04:54:00